Flag for U.S.A. Weather past 2 weeks in Salinas, California, U.S.A.

Now
68 °F

Sunny.


Feels Like: 68 °F
Forecast: 59 / 72 °F
Wind: No wind

Location: Salinas Municipal Airport

Current Time: Sep 19, 2014 at 11:04:48 AM

Latest Report: Sep 19, 2014 at 9:53 AM


Visibility: 10 mi

Pressure: 29.94 "Hg

Humidity: 73%

Dew point: 59 °F

Location of SalinasLocation

Historic Weather in Salinas — Graph

°F

Salinas temperature yesterday

Maximum temperature yesterday: 75 °F (at 11:53 AM)
Minimum temperature yesterday: 62 °F (at 2:53 AM)
Average temperature yesterday: 68 °F

Past Weeks' High & Low Weather Summary

 TemperatureHumidityPressure
High83 °F (Sep 10, 12:53 PM)100% (Sep 11, 7:58 AM)30.03 "Hg (Sep 11, 7:58 AM)
Low54 °F (Sep 16, 5:53 AM)26% (Sep 10, 12:53 PM)29.79 "Hg (Sep 4, 5:53 PM)
Average64 °F75%29.90 "Hg
* Reported Sep 4 9:53 AM — Sep 19 9:53 AM, Salinas, Weather by CustomWeather, © 2014

Note: Actual official high and low records may vary slightly from our data, if they occured in-between our weather recording intervals... More about our weather records

Advertising

Salinas weather history for previous 24 hours

 ConditionsComfort  
Time TempWeatherWind HumidityBarometerVisibility
9:53 AM
Sep 19
68 °FSunny.No wind73%29.94 "Hg10 mi
8:53 AM67 °FOvercast.No wind76%29.94 "Hg10 mi
7:53 AM64 °FOvercast.3 mph81%29.94 "Hg10 mi
6:53 AM64 °FOvercast.5 mph81%29.93 "Hg10 mi
5:53 AM63 °FOvercast.5 mph84%29.92 "Hg10 mi
4:53 AM64 °FOvercast.7 mph81%29.92 "Hg10 mi
3:53 AM64 °FOvercast.5 mph84%29.92 "Hg10 mi
2:53 AM65 °FOvercast.5 mph85%29.91 "Hg10 mi
1:53 AM66 °FOvercast.6 mph81%29.91 "Hg10 mi
12:53 AM66 °FPassing clouds.6 mph81%29.92 "Hg10 mi
11:53 PM
Sep 18
66 °FOvercast.6 mph84%29.92 "Hg10 mi
10:53 PM66 °FPassing clouds.3 mph84%29.91 "Hg10 mi
9:53 PM67 °FOvercast.5 mph81%29.92 "Hg10 mi
8:53 PM67 °FOvercast.5 mph81%29.91 "Hg10 mi
7:53 PM67 °FOvercast.7 mph85%29.89 "Hg10 mi
6:53 PM68 °FOvercast.9 mph78%29.88 "Hg10 mi
5:53 PM69 °FOvercast.14 mph76%29.88 "Hg10 mi
4:53 PM71 °FPassing clouds.16 mph73%29.87 "Hg10 mi
3:53 PM73 °FSunny.15 mph66%29.87 "Hg10 mi
2:53 PM73 °FScattered clouds.13 mph66%29.88 "Hg10 mi
1:53 PM74 °FScattered clouds.15 mph62%29.89 "Hg10 mi
12:53 PM74 °FPartly sunny.14 mph64%29.89 "Hg10 mi
11:53 AM75 °FPartly sunny.10 mph64%29.90 "Hg10 mi
Weather by CustomWeather, © 2014

See weather overviewHow to use our weather pages